Погода в Жемчужникове

Россия / Тульская область     53°56′11″N   36°48′36″E
темп.,
°C
ветер,
м/с
пор.,
м/с
влажн.,
%
обл.,
%
осадки,
мм/ч
давл.,
гПа
погр.,
м
18 апреля, вс
вс1800:00+6ю3593100 2.7 1018334
03:00+6юв2593100 4.9 1018355
06:00+5юв2396100 0.2 1018162
09:00+7вюв1181100 0.2 1018443
12:00+10св226486 0.0 10181106
15:00+10св557099 0.8 10181087
18:00+7ссв149495 7.3 1019296
21:00+8ссв3789100 12.7 1019345
19 апреля, пн
пн1900:00+7всв5109396 0.5 1019416
03:00+5св5996100 0.5 1020317
06:00+6св5993100 0.0 1020542
09:00+7всв5992100 0.0 1020693
12:00+6всв6988100 0.1 1021882
15:00+4св6995100 0.2 1022734
18:00+3св61196100 0.3 1022616
21:00+3всв61197100 0.4 1021749
20 апреля, вт
вт2000:00+3всв61197100 0.5 1021577
03:00+2всв51097100 0.8 1020483
06:00+3всв51197100 0.6 1019477
09:00+3всв51097100 0.6 1018405
12:00+5всв51196100 0.1 1017552
15:00+6в81186100 0.1 1015694
18:00+5всв71394100 0.3 1012696
21:00+2всв71697100 5.8 1008720
21 апреля, ср
ср2100:00+1св71599100 9.0 1002713
03:00+6вюв71599100 13.0 997641
06:00+7ююв71398100 1.8 996738
09:00+1юз71297100 2.0 1000542
12:00+2зюз71391100 0.1 1004840
15:00+4зюз71389100 0.1 10071100
18:00+6юз5118593 0.1 10101118
21:00+4юз5119143 0.1 1012333
22 апреля, чт
чт2200:00+3ююз5139113 0.0 1014321
03:00+3ююз5148985 0.0 1015370
06:00+3ююз4119271 0.0 1016275
09:00+7ююз598095 0.3 1017479
12:00+10ююз6773100 0.3 10171131
15:00+11ююз5872100 0.9 10171290
18:00+11ю597675 0.4 1017726
21:00+7ююв41288100 0.4 1018294